Regional Weather Roundup
Issued by NWS State College, PA

Home | Current Version | Previous Version | Text Only | Print | Product List | Glossary On
Versions: 1 2 3 4 5 6 7 8 9 10 11 12 13 14 15 16 17 18 19 20 21 22 23 24 25 26 27 28 29 30 31 32 33 34 35 36 37 38 39 40 41 42 43 44 45 46 47 48 49 50
000
ASUS41 KCTP 271210
RWRCTP

REGIONAL WEATHER ROUNDUP
NATIONAL WEATHER SERVICE STATE COLLEGE PA
800 AM EDT SUN MAY 27 2018

Note: "fair" indicates few or no clouds below 12,000 feet with no
significant weather and/or obstructions to visibility.

* = STATION THAT DOES NOT REPORT PRECIPITATION /E.G. RAIN...SNOW...ETC/
    THUNDER OR FOG.

PAZ002>004-007>009-013>016-020>023-029>032-271300-
WESTERN PENNSYLVANIA

CITY           SKY/WX    TMP DP  RH WIND       PRES   REMARKS
ERIE           FAIR      71  65  81 S9        29.91R
MEADVILLE      PTSUNNY   67  66  97 S5        29.95R
FRANKLIN*      CLOUDY    66  64  93 S5        29.96R
NEW CASTLE     CLOUDY    67  67 100 CALM      29.95R FOG
BEAVER COUNTY  NOT AVBL
BUTLER*        CLOUDY    66  64  94 CALM      29.95R
PITTSBURGH INT CLOUDY    68  65  90 CALM      29.94R
PITTSBURGH     CLOUDY    66  66 100 S3        29.93R
INDIANA*       CLOUDY    66  66 100 NE5       30.00R
LATROBE        CLOUDY    66  66 100 CALM      29.95R
WASHINGTON CO* PTSUNNY   66  66 100 S6        29.96R
$$

PAZ004>006-010>012-017>019-024>028-033>037-041-042-045-046-049>053-271300-
CENTRAL PENNSYLVANIA

CITY           SKY/WX    TMP DP  RH WIND       PRES   REMARKS
BRADFORD       CLOUDY    64  61  90 CALM      29.99R
DUBOIS         CLOUDY    64  63  96 SE3       29.97R FOG
CLEARFIELD     CLOUDY    64  63  96 CALM      29.98R FOG
JOHNSTOWN      PTSUNNY   66  64  93 CALM      29.98S
ALTOONA        CLOUDY    70  66  87 CALM      29.97R FOG
STATE COLLEGE  CLOUDY    64  64 100 CALM      29.96R FOG
WILLIAMSPORT   PTSUNNY   68  65  90 CALM      29.93R
SELINSGROVE    CLOUDY    68  66  93 NE3       29.95R
FT INDIANTOWN  PTSUNNY   71  70  96 N5        29.92R
CAPITAL CITY   CLOUDY    76  65  68 NW5       29.91R
HARRISBURG     PTSUNNY   73  67  81 NW6       29.90R
YORK           FAIR      73  70  90 CALM      29.92R
$$

PAZ038>040-043-044-047-048-054-055-060>062-067>071-271300-
EASTERN PENNSYLVANIA

CITY           SKY/WX    TMP DP  RH WIND       PRES   REMARKS
SCRANTON       LGT RAIN  65  64  97 VRB3      29.99R FOG
MOUNT POCONO   LGT RAIN  62  61  96 E10G18    30.01R
ALLENTOWN      CLOUDY    70  63  78 E16       29.96R
QUAKERTOWN*    CLOUDY    66  66 100 VRB7G22   29.96R
READING        PTSUNNY   73  69  87 NE8       29.91S
LANCASTER      PTSUNNY   75  73  93 W7        29.91S FOG
COATESVILLE    CLOUDY    72  70  94 CALM      29.94R
POTTSTOWN      CLOUDY    68  68 100 E6        29.95R
BLUE BELL      CLOUDY    66  66 100 NE10      29.95R
DOYLESTOWN     LGT RAIN  63  63 100 VRB7      29.95R
WILLOW GROVE   NOT AVBL
NORTH PHILA    HVY RAIN  69  65  86 NE21G29   29.95R VSB 3/4
PHILADELPHIA   PTSUNNY   74  71  91 SW5       29.91S
$$




USA.gov is the U.S. government's official web portal to all federal, state and local government web resources and services.